Location: Wanzleben
(52.0609°N, 11.4408°E)
Time: 19:03:03
(UTC+00:00)

Cosmos 1975 - Pass Details

Date: 18 September 2020
Orbit: 541 x 562 km, 82.5° (Epoch: 21 October)

Event Time Altitude Azimuth Distance (km) Brightness Sun altitude
Rises 18:45:24 0° 209° (SSW) 2,746 6.5 -13.5°
Reaches altitude 10° 18:47:41 10° 217° (SW) 1,854 5.7 -13.8°
Maximum altitude 18:51:32 40° 287° (WNW) 846 4.4 -14.4°
Drops below altitude 10° 18:55:25 10° 358° (N) 1,862 5.8 -14.9°
Sets 18:57:42 0° 6° (N) 2,760 6.6 -15.2°
